Hourly Data Report for November 23, 2014

All times are specified in Local Standard Time (LST). Add 1 hour to adjust for Daylight Saving Time where and when it is observed.

Metadata including Station Name, Province, Latitude, Longitude, Elevation, Climate ID, WMO ID, TC ID
WEKWEETI A
NORTHWEST TERRITORIES
Latitude: 64°11'27.000" N Longitude: 114°04'36.000" W Elevation: 368.20 m
Climate ID: 2203980 WMO ID: TC ID: YWE
Hourly Data Report for November 22, 2014
Temp Definition
°C

Dew Point Temp Definition
°C

Rel Hum Definition
%

Wind Dir Definition
10's deg
Wind Spd Definition
km/h

Visibility Definition
km

Stn Press Definition
kPa

Hmdx Definition

Wind Chill Definition

Weather Definition

00:00 Legend Double Dagger -29.9 -32.8 76 25 8 16.1 96.28 -38 LegendNANA
01:00 Legend Double Dagger -29.3 -32.5 75 LegendMM 8 16.1 96.30 -37 Snow
02:00 Legend Double Dagger -28.8 -31.8 76 34 5 16.1 96.29 -34 Snow
03:00 Legend Double Dagger -28.5 -31.4 77 36 11 16.1 96.24 -38 LegendNANA
04:00 Legend Double Dagger -29.5 -32.9 73   0 16.1 96.29 LegendNANA
05:00 Legend Double Dagger -28.9 -31.8 77 21 4 16.1 96.31 -33 LegendNANA
06:00 Legend Double Dagger -30.4 -33.5 75 28 8 16.1 96.30 -38 LegendNANA
07:00 Legend Double Dagger -30.5 -33.6 75 32 8 16.1 96.28 -39 LegendNANA
08:00 Legend Double Dagger -30.2 -33.3 75 16 5 16.1 96.31 -36 LegendNANA
09:00 Legend Double Dagger -30.9 -34.3 73 8 8 16.1 96.33 -39 LegendNANA
10:00 Legend Double Dagger -30.2 -33.4 74 LegendMM 4 16.1 96.36 -35 LegendNANA
11:00 Legend Double Dagger -28.9 -31.9 76   0 16.1 96.39 LegendNANA
12:00 Legend Double Dagger -28.1 -31.1 76 LegendMM 4 16.1 96.42 -32 LegendNANA
13:00 Legend Double Dagger -27.3 -30.3 76 28 9 16.1 96.46 -35 LegendNANA
14:00 Legend Double Dagger -27.2 -30.4 75 4 4 16.1 96.46 -31 LegendNANA
15:00 Legend Double Dagger -27.6 -30.6 76   0 16.1 96.49 LegendNANA
16:00 Legend Double Dagger -28.8 -32.0 74 28 5 16.1 96.52 -34 LegendNANA
17:00 Legend Double Dagger -29.8 -33.2 73   0 16.1 96.51 LegendNANA
18:00 Legend Double Dagger -29.3 -32.5 74 13 4 16.1 96.51 -34 LegendNANA
19:00 Legend Double Dagger -30.1 -33.3 74 30 5 16.1 96.52 -36 LegendNANA
20:00 Legend Double Dagger -30.4 -33.8 73 LegendMM 4 16.1 96.52 -35 LegendNANA
21:00 Legend Double Dagger -29.7 -33.0 74 29 4 16.1 96.49 -34 LegendNANA
22:00 Legend Double Dagger -29.7 -32.9 74 22 9 16.1 96.54 -38 LegendNANA
23:00 Legend Double Dagger -29.6 -32.9 74 27 4 16.1 96.56 -34 LegendNANA

Notes on Data Quality.

Legend
  • E = Estimated
  • M = Missing
  • NA = Not Available
  • ‡ = Partner data that is not subject to review by the National Climate Archives